Regional Weather Roundup
Issued by NWS

Home | Current Version | Previous Version | Graphics & Text | Print | Product List | Glossary On
Versions: 1 2 3 4 5 6 7 8 9 10 11 12 13 14 15 16 17 18 19 20 21 22 23 24 25 26 27 28 29 30 31 32 33 34 35 36 37 38 39 40 41 42 43 44 45 46 47 48
000
ASUS45 KSLC 142210
RWRUT

UTAH REGIONAL WEATHER ROUNDUP
NATIONAL WEATHER SERVICE SALT LAKE CITY UT
400 PM MDT SUN SEP 14 2014

UTZ001>011-023>025-142300-

NORTHERN UTAH

CITY           SKY/WX    TMP DP  RH WIND       PRES   REMARKS
HILL AFB       NOT AVBL
LOGAN          SUNNY     85  35  16 CALM      30.02F
OGDEN          PTSUNNY   82  31  15 W5        30.03S
PROVO AIRPORT  MOSUNNY   82  45  26 VRB5      30.04F
SALT LAKE CITY CLOUDY    85  35  16 N10       29.99F
VERNAL         MOSUNNY   78  44  29 E6        30.07F
WENDOVER       MOSUNNY   82  32  16 SE6       30.01S
HEBER CITY     PTSUNNY   79  37  22 SW12      30.09S
WEST JORDAN    SUNNY     82  37  20 S5        30.04S

$$

UTZ012>022-026-027-142300-

SOUTHERN UTAH

CITY           SKY/WX    TMP DP  RH WIND       PRES   REMARKS
BRYCE CANYON   CLOUDY    75  37  25 E5        30.26F
CEDAR CITY     SUNNY     83  33  16 SW8       30.10F
MILFORD        SUNNY     88  32  13 S18G25    30.04F
MOAB/CYNLANDS  SUNNY     89  33  13 VRB6      30.00F
PRICE          MOSUNNY   83  29  14 VRB3      30.12F
ST GEORGE      MOCLDY    93  43  17 CALM      29.92F
KANAB            N/A     88  36  15 S6        30.07F

$$

REGIONAL REPORTS     COLORADO/ARIZONA

CITY           SKY/WX    TMP DP  RH WIND       PRES   REMARKS
CRAIG, CO      MOSUNNY   82  29  14 W18G31    30.12S
GRAND JUNCTION MOSUNNY   84  41  21 W6        30.05F
RIFLE          MOSUNNY   81  31  16 W18       30.10S
MONTROSE       MOSUNNY   83  35  18 CALM      30.13F
CORTEZ         SUNNY     82  38  20 VRB3      30.14F
PAGE, AZ       SUNNY     92  30  11 N5        30.01F
GRAND CANYON   MOSUNNY   80  41  24 NE8G18    30.19F
KINGMAN        SUNNY     94  45  18 CALM      29.94F HX  90
FLAGSTAFF      MOSUNNY   77  41  27 VRB7      30.21F

$$

REGIONAL REPORTS    NEVADA/IDAHO/WYOMING

CITY           SKY/WX    TMP DP  RH WIND       PRES   REMARKS
LAS VEGAS, NV  MOSUNNY  100  41  13 VRB3      29.79F HX  95
ELY            MOSUNNY   81  29  15 S10       30.12F
ELKO           MOSUNNY   85  22  10 VRB6      30.04F
POCATELLO, ID  SUNNY     84  22  10 W7        30.03F
BURLEY         MOSUNNY   81  37  20 CALM      30.00F
EVANSTON, WY   MOSUNNY   74  27  17 W17       30.20S
ROCK SPRINGS   MOSUNNY   80  23  12 W24G38    30.13S

$$


USA.gov is the U.S. government's official web portal to all federal, state and local government web resources and services.